Location: Unspecified
(34.4950°S, 58.5160°W)
Time: 04:09:59
(UTC+00:00)

S3M - Pass Details

Date: 04 December 2021
Orbit: 949 x 1004 km, 83.0° (Epoch: 23 January)

Event Time Altitude Azimuth Distance (km) Brightness Sun altitude
Rises 23:33:54 0° 188° (S) 3,659 7.7 -7.7°
Reaches altitude 10° 23:36:25 10° 189° (S) 2,704 7.0 -8.2°
Maximum altitude 23:42:36 80° 274° (W) 976 4.1 -9.2°
Drops below altitude 10° 23:48:42 10° 360° (N) 2,674 6.0 -10.2°
Sets 23:51:11 0° 1° (N) 3,616 6.6 -10.6°
